Погода в Мокром Мичкассе

Россия / Пензенская область     53°20′51″N   43°36′12″E
темп.,
°C
ветер,
м/с
пор.,
м/с
влажн.,
%
обл.,
%
осадки,
мм/ч
давл.,
гПа
погр.,
м
19 апреля, пн
пн1900:00+9в41079100 0.0 1019356
03:00+8всв41081100 0.1 1019334
06:00+6всв51080100 0.0 1019388
09:00+8в7978100 0.1 1019580
12:00+8в4977100 3.8 10191055
15:00+7вюв5888100 6.2 1020956
18:00+7всв5980100 1.1 1020721
21:00+7в61174100 1.1 1020741
20 апреля, вт
вт2000:00+5в81280100 0.2 1021753
03:00+3в71397100 1.8 1021570
06:00+3в71497100 1.3 1020655
09:00+3вюв81593100 2.4 1021671
12:00+3вюв81688100 0.6 1021730
15:00+3вюв91784100 2.2 1020725
18:00+4вюв102081100 0.6 1017763
21:00+5вюв122286100 3.9 1014874
21 апреля, ср
ср2100:00+6вюв132490100 7.8 1010977
03:00+6юв132392100 10.9 1009876
06:00+6юв122292100 0.4 1009848
09:00+6юв122093100 0.5 1009967
12:00+8ю91690100 0.6 10101311
15:00+8ююз81380100 0.7 10131171
18:00+8ююз61182100 0.0 1015628
21:00+7ююз3791100 0.1 1017209
22 апреля, чт
чт2200:00+5ююз3394100 0.0 101839
03:00+5ююв3391100 0.0 101937
06:00+6юв2596100 0.1 1019151
09:00+9ююв459197 0.9 1019496
12:00+12юз675770 0.6 10201753
15:00+13зюз66479 0.6 10211853
18:00+12ююз23595 0.0 102263
21:00+9ю336990 0.0 102336
23 апреля, пт
пт2300:00+8ююв4674100 0.0 102387
03:00+9ююв3676100 0.0 1023112
06:00+9ююв4783100 0.0 1024177
09:00+11ю5771100 0.0 1024411
12:00+15ю565398 0.9 10221496
15:00+16ю6746100 2.1 10212254
18:00+13ю596295 0.6 1021434
21:00+9ю388186 0.6 1021167